Location: Fish Springs
(37.0754°N, 118.2540°W)
Time: 17:48:56
(UTC+00:00)

X-37B - Visible Passes

Search period start: 24 January 2022 00:00
Search period end: 03 February 2022 00:00
Orbit: 334 x 337 km, 45.0° (Epoch: 11 January)

Date Brightness Start Highest point End Pass type
(mag) Time Alt. Az. Time Alt. Az. Time Alt. Az.
24 Jan 3.1 02:58:27 10° SSW 02:59:02 14° SSW 02:59:02 14° SSW visible
25 Jan 3.4 03:18:25 10° WSW 03:18:59 15° WSW 03:18:59 15° WSW visible
26 Jan 1.6 02:03:54 10° SSW 02:06:20 26° SE 02:07:38 19° E visible
27 Jan 0.2 02:23:51 10° WSW 02:26:40 85° SSE 02:27:26 44° ENE visible
28 Jan 1.4 02:44:31 10° W 02:47:11 36° NNW 02:47:11 36° NNW visible
29 Jan 2.9 03:05:34 10° WNW 03:06:51 18° NW 03:06:51 18° NW visible
30 Jan 1.4 01:49:56 10° W 01:52:36 37° NNW 01:55:16 10° NE visible
31 Jan 2.2 02:10:59 10° WNW 02:13:16 21° NNW 02:14:53 14° NNE visible
01 Feb 2.4 02:32:06 10° NW 02:34:02 16° N 02:34:28 16° N visible
02 Feb 2.8 02:52:53 10° NW 02:54:05 15° NNW 02:54:05 15° NNW visible
